Time,TemperatureF,DewpointF,PressureIn,WindDirection,WindDirectionDegrees,WindSpeedMPH,WindSpeedGustMPH,Humidity,HourlyPrecipIn,Conditions,Clouds,dailyrainin,SolarRadiationWatts/m^2,SoftwareType,DateUTC
2013-09-01 00:00:00,67.0,62.0,-100.00,East,90,1.0,-999.0,84,-99.99,,,-99.99,0.000000,,2013-09-01 04:00:00,
2013-09-01 00:43:00,67.0,62.0,-100.00,East,90,1.0,-999.0,84,-99.99,,,-99.99,0.000000,,2013-09-01 04:43:00,
2013-09-01 00:54:00,67.0,62.0,-100.00,East,90,1.0,-999.0,84,-99.99,,,-99.99,0.000000,,2013-09-01 04:54:00,
2013-09-01 01:00:00,67.0,62.0,-100.00,SSE,157,1.0,-999.0,84,-99.99,,,-99.99,0.000000,,2013-09-01 05:00:00,
2013-09-01 01:43:00,67.0,62.0,-100.00,SSE,157,1.0,-999.0,84,-99.99,,,-99.99,0.000000,,2013-09-01 05:43:00,
2013-09-01 01:52:00,67.0,62.0,-100.00,SSE,157,1.0,-999.0,84,-99.99,,,-99.99,0.000000,,2013-09-01 05:52:00,
2013-09-01 02:00:00,66.0,61.0,-100.00,SE,135,1.0,-999.0,83,-99.99,,,-99.99,0.000000,,2013-09-01 06:00:00,
2013-09-01 02:42:00,66.0,61.0,-100.00,SE,135,1.0,-999.0,83,-99.99,,,-99.99,0.000000,,2013-09-01 06:42:00,
2013-09-01 02:52:00,66.0,61.0,-100.00,SE,135,1.0,-999.0,83,-99.99,,,-99.99,0.000000,,2013-09-01 06:52:00,
2013-09-01 03:00:00,66.0,61.0,-100.00,South,180,0.0,-999.0,84,-99.99,,,-99.99,0.000000,,2013-09-01 07:00:00,
2013-09-01 03:42:00,66.0,61.0,-100.00,South,180,0.0,-999.0,84,-99.99,,,-99.99,0.000000,,2013-09-01 07:42:00,
2013-09-01 03:52:00,66.0,61.0,-100.00,South,180,0.0,-999.0,84,-99.99,,,-99.99,0.000000,,2013-09-01 07:52:00,
2013-09-01 04:00:00,66.0,61.0,-100.00,SSE,157,0.0,-999.0,83,-99.99,,,-99.99,0.000000,,2013-09-01 08:00:00,
2013-09-01 04:43:00,66.0,61.0,-100.00,SSE,157,0.0,-999.0,83,-99.99,,,-99.99,0.000000,,2013-09-01 08:43:00,
2013-09-01 04:52:00,66.0,61.0,-100.00,SSE,157,0.0,-999.0,83,-99.99,,,-99.99,0.000000,,2013-09-01 08:52:00,
2013-09-01 05:00:00,65.0,61.0,-100.00,SSE,157,1.0,-999.0,86,-99.99,,,-99.99,0.000000,,2013-09-01 09:00:00,
2013-09-01 05:43:00,65.0,61.0,-100.00,SSE,157,1.0,-999.0,86,-99.99,,,-99.99,0.000000,,2013-09-01 09:43:00,
2013-09-01 05:53:00,65.0,61.0,-100.00,SSE,157,1.0,-999.0,86,-99.99,,,-99.99,0.000000,,2013-09-01 09:53:00,
2013-09-01 06:00:00,65.0,62.0,-100.00,ESE,112,0.0,-999.0,88,-99.99,,,-99.99,0.000000,,2013-09-01 10:00:00,
2013-09-01 06:42:00,65.0,62.0,-100.00,ESE,112,0.0,-999.0,88,-99.99,,,-99.99,0.000000,,2013-09-01 10:42:00,
2013-09-01 06:53:00,65.0,62.0,-100.00,ESE,112,0.0,-999.0,88,-99.99,,,-99.99,0.000000,,2013-09-01 10:53:00,
2013-09-01 07:00:00,65.0,62.0,-100.00,WSW,247,0.0,-999.0,89,-99.99,,,-99.99,0.000000,,2013-09-01 11:00:00,
2013-09-01 07:42:00,65.0,62.0,-100.00,WSW,247,0.0,-999.0,89,-99.99,,,-99.99,0.000000,,2013-09-01 11:42:00,
2013-09-01 07:52:00,65.0,62.0,-100.00,WSW,247,0.0,-999.0,89,-99.99,,,-99.99,0.000000,,2013-09-01 11:52:00,
2013-09-01 08:00:00,65.0,62.0,-100.00,SW,225,0.0,-999.0,89,-99.99,,,-99.99,8.120000,,2013-09-01 12:00:00,
2013-09-01 08:42:00,65.0,62.0,-100.00,SW,225,0.0,-999.0,89,-99.99,,,-99.99,8.120000,,2013-09-01 12:42:00,
2013-09-01 08:52:00,65.0,62.0,-100.00,SW,225,0.0,-999.0,89,-99.99,,,-99.99,8.120000,,2013-09-01 12:52:00,
2013-09-01 09:00:00,66.0,63.0,-100.00,ESE,112,0.0,-999.0,88,-99.99,,,-99.99,19.719999,,2013-09-01 13:00:00,
2013-09-01 09:42:00,66.0,63.0,-100.00,ESE,112,0.0,-999.0,88,-99.99,,,-99.99,19.719999,,2013-09-01 13:42:00,
2013-09-01 09:52:00,66.0,63.0,-100.00,ESE,112,0.0,-999.0,88,-99.99,,,-99.99,19.719999,,2013-09-01 13:52:00,
2013-09-01 10:00:00,66.0,62.0,-100.00,East,90,1.0,-999.0,87,-99.99,,,-99.99,58.000000,,2013-09-01 14:00:00,
2013-09-01 10:42:00,66.0,62.0,-100.00,East,90,1.0,-999.0,87,-99.99,,,-99.99,58.000000,,2013-09-01 14:42:00,
2013-09-01 10:52:00,66.0,62.0,-100.00,East,90,1.0,-999.0,87,-99.99,,,-99.99,58.000000,,2013-09-01 14:52:00,
2013-09-01 11:00:00,67.0,63.0,-100.00,East,90,1.0,-999.0,89,-99.99,,,-99.99,206.479996,,2013-09-01 15:00:00,
2013-09-01 11:45:00,67.0,63.0,-100.00,East,90,1.0,-999.0,89,-99.99,,,-99.99,206.479996,,2013-09-01 15:45:00,
2013-09-01 11:55:00,67.0,63.0,-100.00,East,90,1.0,-999.0,89,-99.99,,,-99.99,206.479996,,2013-09-01 15:55:00,
2013-09-01 12:00:00,68.0,63.0,-100.00,ESE,112,1.0,-999.0,84,-99.99,,,-99.99,102.080002,,2013-09-01 16:00:00,
2013-09-01 12:43:00,68.0,63.0,-100.00,ESE,112,1.0,-999.0,84,-99.99,,,-99.99,102.080002,,2013-09-01 16:43:00,
2013-09-01 12:53:00,68.0,63.0,-100.00,ESE,112,1.0,-999.0,84,-99.99,,,-99.99,102.080002,,2013-09-01 16:53:00,
2013-09-01 13:00:00,68.0,62.0,-100.00,ESE,112,0.0,-999.0,79,-99.99,,,-99.99,160.080002,,2013-09-01 17:00:00,
2013-09-01 13:42:00,68.0,62.0,-100.00,ESE,112,0.0,-999.0,79,-99.99,,,-99.99,160.080002,,2013-09-01 17:42:00,
2013-09-01 13:52:00,68.0,62.0,-100.00,ESE,112,0.0,-999.0,79,-99.99,,,-99.99,160.080002,,2013-09-01 17:52:00,
2013-09-01 14:00:00,72.0,64.0,-100.00,SE,135,1.0,-999.0,75,-99.99,,,-99.99,383.959991,,2013-09-01 18:00:00,
2013-09-01 14:42:00,72.0,64.0,-100.00,SE,135,1.0,-999.0,75,-99.99,,,-99.99,383.959991,,2013-09-01 18:42:00,
2013-09-01 14:52:00,72.0,64.0,-100.00,SE,135,1.0,-999.0,75,-99.99,,,-99.99,383.959991,,2013-09-01 18:52:00,
2013-09-01 15:00:00,74.0,65.0,-100.00,SE,135,1.0,-999.0,74,-99.99,,,-99.99,352.640015,,2013-09-01 19:00:00,
2013-09-01 15:42:00,74.0,65.0,-100.00,SE,135,1.0,-999.0,74,-99.99,,,-99.99,352.640015,,2013-09-01 19:42:00,
2013-09-01 15:52:00,74.0,65.0,-100.00,SE,135,1.0,-999.0,74,-99.99,,,-99.99,352.640015,,2013-09-01 19:52:00,
2013-09-01 16:00:00,75.0,65.0,-100.00,SSE,157,1.0,-999.0,72,-99.99,,,-99.99,288.839996,,2013-09-01 20:00:00,
2013-09-01 16:42:00,75.0,65.0,-100.00,SSE,157,1.0,-999.0,72,-99.99,,,-99.99,288.839996,,2013-09-01 20:42:00,
2013-09-01 16:52:00,75.0,65.0,-100.00,SSE,157,1.0,-999.0,72,-99.99,,,-99.99,288.839996,,2013-09-01 20:52:00,
2013-09-01 17:00:00,76.0,66.0,-100.00,South,180,0.0,-999.0,69,-99.99,,,-99.99,278.399994,,2013-09-01 21:00:00,
2013-09-01 17:44:00,76.0,66.0,-100.00,South,180,0.0,-999.0,69,-99.99,,,-99.99,278.399994,,2013-09-01 21:44:00,
2013-09-01 17:55:00,76.0,66.0,-100.00,South,180,0.0,-999.0,69,-99.99,,,-99.99,278.399994,,2013-09-01 21:55:00,
2013-09-01 18:00:00,78.0,66.0,-100.00,SSW,202,0.0,-999.0,67,-99.99,,,-99.99,264.480011,,2013-09-01 22:00:00,
2013-09-01 18:43:00,78.0,66.0,-100.00,SSW,202,0.0,-999.0,67,-99.99,,,-99.99,264.480011,,2013-09-01 22:43:00,
2013-09-01 18:53:00,78.0,66.0,-100.00,SSW,202,0.0,-999.0,67,-99.99,,,-99.99,264.480011,,2013-09-01 22:53:00,
2013-09-01 19:00:00,78.0,67.0,-100.00,SE,135,0.0,-999.0,67,-99.99,,,-99.99,200.679993,,2013-09-01 23:00:00,
2013-09-01 19:42:00,78.0,67.0,-100.00,SE,135,0.0,-999.0,67,-99.99,,,-99.99,200.679993,,2013-09-01 23:42:00,
2013-09-01 19:53:00,78.0,67.0,-100.00,SE,135,0.0,-999.0,67,-99.99,,,-99.99,200.679993,,2013-09-01 23:53:00,
2013-09-01 20:00:00,75.0,67.0,-100.00,East,90,0.0,-999.0,77,-99.99,,,-99.99,48.720001,,2013-09-02 00:00:00,
2013-09-01 20:42:00,75.0,67.0,-100.00,East,90,0.0,-999.0,77,-99.99,,,-99.99,48.720001,,2013-09-02 00:42:00,
2013-09-01 20:52:00,75.0,67.0,-100.00,East,90,0.0,-999.0,77,-99.99,,,-99.99,48.720001,,2013-09-02 00:52:00,
2013-09-01 21:00:00,70.0,67.0,-100.00,ESE,112,0.0,-999.0,88,-99.99,,,-99.99,0.000000,,2013-09-02 01:00:00,
2013-09-01 21:42:00,70.0,67.0,-100.00,ESE,112,0.0,-999.0,88,-99.99,,,-99.99,0.000000,,2013-09-02 01:42:00,
2013-09-01 21:52:00,70.0,67.0,-100.00,ESE,112,0.0,-999.0,88,-99.99,,,-99.99,0.000000,,2013-09-02 01:52:00,
2013-09-01 22:00:00,69.0,66.0,-100.00,SSW,202,0.0,-999.0,92,-99.99,,,-99.99,0.000000,,2013-09-02 02:00:00,
2013-09-01 22:42:00,69.0,66.0,-100.00,SSW,202,0.0,-999.0,92,-99.99,,,-99.99,0.000000,,2013-09-02 02:42:00,
2013-09-01 22:52:00,69.0,66.0,-100.00,SSW,202,0.0,-999.0,92,-99.99,,,-99.99,0.000000,,2013-09-02 02:52:00,
2013-09-01 23:00:00,68.0,66.0,-100.00,ESE,112,0.0,-999.0,93,-99.99,,,-99.99,0.000000,,2013-09-02 03:00:00,
2013-09-01 23:44:00,68.0,66.0,-100.00,ESE,112,0.0,-999.0,93,-99.99,,,-99.99,0.000000,,2013-09-02 03:44:00,
2013-09-01 23:56:00,68.0,66.0,-100.00,ESE,112,0.0,-999.0,93,-99.99,,,-99.99,0.000000,,2013-09-02 03:56:00,